Torna al catalogo

RAWHIDE-2

AttivoScienzaVLEO
NORAD 68632·PAYLOAD·🇺🇸 United States

Lanciato Apr 7, 2026 da Vandenberg Space Force Base

Loading…

Prossimi Passaggi (prossime 24 ore)

TLE

AggiornatoSource: Space-Track

Epoca: Sep 14, 2026, 12:50 UTC

1 68632U 26074F   26257.53504757  .00002331  00000-0  10110-3 0  9997
2 68632  60.0303 194.6803 0036348  89.2016 271.3230 15.25542329 24417

Traccia RAWHIDE-2 in tempo reale con AllMySat

Download on the App Store